Weather History for Huntsville Madison, AL

Change the Weather History Date:

Saturday, August 24, 2013

  Actual Average (KHSV) Record (KHSV)
Temperature  
Mean Temperature 78 °F 80 °F  
Max Temperature 87 °F 91 °F 103 °F (1924)
Min Temperature 68 °F 69 °F 54 °F (1930)
Degree Days  
Heating Degree Days 0 0  
Month to date heating degree days 0  
Since 1 June heating degree days 1  
Since 1 July heating degree days 0  
Cooling Degree Days 12 15  
Month to date cooling degree days 374  
Year to date cooling degree days 1499  
Since 1 June cooling degree days 1236  
Growing Degree Days 28 (Base 50)    
Moisture  
Dew Point 65 °F    
Average Humidity 72    
Maximum Humidity 94    
Minimum Humidity 40    
Precipitation  
Precipitation 0.00 in 0.11 in 1.94 in (1985)
Month to date precipitation 2.87  
Year to date precipitation 35.58  
Snow  
Snow 0.00 in - - ()
Month to date snowfall  
Since 1 June snowfall  
Since 1 July snowfall  
Snow Depth -    
Sea Level Pressure  
Sea Level Pressure 30.15 in    
Wind  
Wind Speed 1 mph (SE)    
Max Wind Speed 6 mph    
Max Gust Speed -    
Visibility 8 miles    
Events      
T = Trace of Precipitation, MM = Missing Value Source: NWS Daily Summary

Daily Weather History Graph

Daily Weather History Graph

Search for Another Location

Airport:

Trip Planner

Search our weather history database for the weather conditions in past years. The results will help you decide how hot, cold, wet, or windy it might be!

Date:

Astronomy

Aug. 24, 2013 Rise Set
Actual Time 6:13 AM CDT 7:23 PM CDT
Civil Twilight 5:47 AM CDT 7:49 PM CDT
Nautical Twilight 5:15 AM CDT 8:20 PM CDT
Astronomical Twilight 4:43 AM CDT 8:52 PM CDT
Moon 9:29 PM CDT (8/24) 10:00 AM CDT (8/24)
Length of Visible Light 14h 02m
Length of Day
13h 09m
Waning Gibbous, 84% of the Moon is Illuminated
Aug 24
Waning Gibbous
Aug 28
Last Quarter
Sep 5
New
Sep 12
First Quarter
Sep 19
Full

Hourly Weather History & Observations

Time (CDT) Temp. Heat Index Dew Point Humidity Pressure Visibility Wind Dir Wind Speed Gust Speed Precip Events Conditions
12:15 AM 71.6 °F - 68.0 °F 88% 30.08 in 7.0 mi Calm Calm - N/A   Clear
12:35 AM 71.6 °F - 68.0 °F 88% 30.08 in 7.0 mi Calm Calm - N/A   Clear
12:55 AM 71.6 °F - 68.0 °F 88% 30.08 in 5.0 mi Calm Calm - N/A   Clear
1:15 AM 69.8 °F - 68.0 °F 94% 30.09 in 5.0 mi Calm Calm - N/A   Clear
1:35 AM 69.8 °F - 66.2 °F 88% 30.08 in 5.0 mi Calm Calm - N/A   Clear
1:55 AM 69.8 °F - 66.2 °F 88% 30.09 in 3.0 mi Calm Calm - N/A   Clear
2:15 AM 69.8 °F - 66.2 °F 88% 30.09 in 5.0 mi Calm Calm - N/A   Clear
2:35 AM 69.8 °F - 66.2 °F 88% 30.09 in 4.0 mi Calm Calm - N/A   Clear
2:55 AM 69.8 °F - 66.2 °F 88% 30.09 in 4.0 mi Calm Calm - N/A   Clear
3:15 AM 68.0 °F - 64.4 °F 88% 30.09 in 5.0 mi Calm Calm - N/A   Clear
3:35 AM 69.8 °F - 66.2 °F 88% 30.10 in 5.0 mi Calm Calm - N/A   Clear
3:55 AM 68.0 °F - 64.4 °F 88% 30.10 in 3.0 mi Calm Calm - N/A   Clear
4:15 AM 68.0 °F - 64.4 °F 88% 30.10 in 4.0 mi Calm Calm - N/A   Clear
4:35 AM 68.0 °F - 64.4 °F 88% 30.10 in 4.0 mi Calm Calm - N/A   Clear
4:55 AM 68.0 °F - 64.4 °F 88% 30.10 in 5.0 mi Calm Calm - N/A   Clear
5:15 AM 68.0 °F - 64.4 °F 88% 30.11 in 4.0 mi Calm Calm - N/A   Clear
5:35 AM 68.0 °F - 64.4 °F 88% 30.11 in 5.0 mi Calm Calm - N/A   Clear
5:55 AM 68.0 °F - 64.4 °F 88% 30.12 in 7.0 mi Calm Calm - N/A   Clear
6:15 AM 68.0 °F - 64.4 °F 88% 30.13 in 4.0 mi Calm Calm - N/A   Clear
6:35 AM 68.0 °F - 62.6 °F 83% 30.14 in 4.0 mi Calm Calm - N/A   Clear
6:55 AM 68.0 °F - 64.4 °F 88% 30.14 in 2.5 mi Calm Calm - N/A   Clear
7:15 AM 68.0 °F - 64.4 °F 88% 30.15 in 3.0 mi Calm Calm - N/A   Clear
7:35 AM 69.8 °F - 64.4 °F 83% 30.16 in 5.0 mi Calm Calm - N/A   Clear
7:55 AM 69.8 °F - 66.2 °F 88% 30.16 in 5.0 mi Calm Calm - N/A   Clear
8:15 AM 71.6 °F - 66.2 °F 83% 30.17 in 7.0 mi Calm Calm - N/A   Clear
8:35 AM 71.6 °F - 66.2 °F 83% 30.17 in 7.0 mi Calm Calm - N/A   Clear
8:55 AM 75.2 °F - 66.2 °F 73% 30.18 in 10.0 mi Calm Calm - N/A   Clear
9:15 AM 77.0 °F - 64.4 °F 65% 30.18 in 10.0 mi Calm Calm - N/A   Clear
9:35 AM 77.0 °F - 64.4 °F 65% 30.19 in 10.0 mi ESE 4.6 mph - N/A   Clear
9:55 AM 78.8 °F - 64.4 °F 61% 30.18 in 10.0 mi Calm Calm - N/A   Clear
10:15 AM 78.8 °F - 66.2 °F 65% 30.19 in 10.0 mi Calm Calm - N/A   Clear
10:35 AM 80.6 °F 82.3 °F 64.4 °F 58% 30.18 in 10.0 mi Calm Calm - N/A   Clear
10:55 AM 80.6 °F 81.8 °F 62.6 °F 54% 30.18 in 10.0 mi Calm Calm - N/A   Clear
11:15 AM 82.4 °F 83.4 °F 62.6 °F 51% 30.18 in 10.0 mi Calm Calm - N/A   Clear
11:35 AM 82.4 °F 83.4 °F 62.6 °F 51% 30.18 in 10.0 mi Calm Calm - N/A   Clear
11:55 AM 82.4 °F 83.4 °F 62.6 °F 51% 30.18 in 10.0 mi SSE 3.5 mph - N/A   Clear
12:15 PM 84.2 °F 85.0 °F 62.6 °F 48% 30.18 in 10.0 mi Calm Calm - N/A   Clear
12:35 PM 82.4 °F 83.4 °F 62.6 °F 51% 30.18 in 10.0 mi SE 4.6 mph - N/A   Scattered Clouds
12:55 PM 86.0 °F 86.6 °F 62.6 °F 45% 30.17 in 10.0 mi Calm Calm - N/A   Scattered Clouds
1:15 PM 86.0 °F 86.6 °F 62.6 °F 45% 30.17 in 10.0 mi ESE 3.5 mph - N/A   Scattered Clouds
1:35 PM 86.0 °F 86.6 °F 62.6 °F 45% 30.17 in 10.0 mi SSE 4.6 mph - N/A   Scattered Clouds
1:55 PM 86.0 °F 86.6 °F 62.6 °F 45% 30.17 in 10.0 mi Calm Calm - N/A   Scattered Clouds
2:15 PM 86.0 °F 86.6 °F 62.6 °F 45% 30.16 in 10.0 mi ESE 3.5 mph - N/A   Scattered Clouds
2:35 PM 87.8 °F 88.5 °F 62.6 °F 43% 30.16 in 10.0 mi SE 3.5 mph - N/A   Scattered Clouds
2:55 PM 87.8 °F 87.6 °F 60.8 °F 40% 30.16 in 10.0 mi SSE 3.5 mph - N/A   Clear
3:15 PM 86.0 °F 86.1 °F 60.8 °F 43% 30.15 in 10.0 mi SE 4.6 mph - N/A   Clear
3:35 PM 86.0 °F 86.6 °F 62.6 °F 45% 30.15 in 7.0 mi ESE 4.6 mph - N/A   Scattered Clouds
3:55 PM 86.0 °F 86.6 °F 62.6 °F 45% 30.15 in 7.0 mi Calm Calm - N/A   Scattered Clouds
4:15 PM 86.0 °F 86.1 °F 60.8 °F 43% 30.15 in 10.0 mi SSE 3.5 mph - N/A   Clear
4:35 PM 87.8 °F 87.6 °F 60.8 °F 40% 30.14 in 10.0 mi Calm Calm - N/A   Clear
4:55 PM 87.8 °F 87.6 °F 60.8 °F 40% 30.14 in 10.0 mi Calm Calm - N/A   Clear
5:15 PM 86.0 °F 86.6 °F 62.6 °F 45% 30.14 in 10.0 mi SE 5.8 mph - N/A   Mostly Cloudy
5:35 PM 86.0 °F 86.6 °F 62.6 °F 45% 30.14 in 10.0 mi SE 3.5 mph - N/A   Scattered Clouds
5:55 PM 82.4 °F 83.9 °F 64.4 °F 54% 30.14 in 10.0 mi Calm Calm - N/A   Clear
6:15 PM 82.4 °F 84.6 °F 66.2 °F 58% 30.14 in 10.0 mi Calm Calm - N/A   Clear
6:35 PM 80.6 °F 83.2 °F 68.0 °F 65% 30.14 in 10.0 mi Calm Calm - N/A   Clear
6:55 PM 80.6 °F 83.2 °F 68.0 °F 65% 30.14 in 10.0 mi Calm Calm - N/A   Clear
7:15 PM 77.0 °F - 69.8 °F 78% 30.15 in 10.0 mi Calm Calm - N/A   Clear
7:35 PM 75.2 °F - 69.8 °F 83% 30.16 in 10.0 mi Calm Calm - N/A   Clear
7:55 PM 77.0 °F - 69.8 °F 78% 30.17 in 10.0 mi Calm Calm - N/A   Clear
8:15 PM 73.4 °F - 69.8 °F 88% 30.17 in 10.0 mi Calm Calm - N/A   Clear
8:35 PM 73.4 °F - 69.8 °F 88% 30.17 in 7.0 mi Calm Calm - N/A   Clear
8:55 PM 73.4 °F - 69.8 °F 88% 30.19 in 7.0 mi Calm Calm - N/A   Clear
9:15 PM 73.4 °F - 69.8 °F 88% 30.19 in 7.0 mi Calm Calm - N/A   Clear
9:35 PM 71.6 °F - 69.8 °F 94% 30.20 in 7.0 mi Calm Calm - N/A   Clear
9:55 PM 71.6 °F - 68.0 °F 88% 30.21 in 7.0 mi Calm Calm - N/A   Clear
10:15 PM 71.6 °F - 69.8 °F 94% 30.22 in 7.0 mi Calm Calm - N/A   Clear
10:35 PM 71.6 °F - 68.0 °F 88% 30.21 in 7.0 mi Calm Calm - N/A   Clear
10:55 PM 71.6 °F - 68.0 °F 88% 30.22 in 7.0 mi Calm Calm - N/A   Clear
11:15 PM 71.6 °F - 69.8 °F 94% 30.22 in 7.0 mi Calm Calm - N/A   Clear
11:35 PM 71.6 °F - 68.0 °F 88% 30.22 in 10.0 mi Calm Calm - N/A   Clear
11:55 PM 73.4 °F - 68.0 °F 83% 30.23 in 10.0 mi SE 5.8 mph - N/A   Clear